Tracking 31080 objects as of 20-Jul-2025
HD Live streaming from Space Station
objects crossing your sky now

CZ-3B R/B

Track CZ-3B R/B now!
10-day predictions


NORAD ID: 43110
Int'l Code: 2018-003D
Perigee: 442.4 km
Apogee: 17,507.2 km
Inclination: 55.0 °
Period: 315.3 minutes
Semi major axis: 15345 km
RCS: Unknown
Launch date: January 11, 2018
Source: People's Republic of China (PRC)
Launch site: Xichang Space Center, China (XSC)

Note: This is a ROCKET BODY
Your satellite tracking list
Your tracking list is empty




NASA's NSSDC Master Catalog

Two Line Element Set (TLE):
1 43110U 18003D   25201.41526336 -.00000004  00000-0  21361-3 0  9992
2 43110  54.9872 313.6723 5560092 319.9011  10.1137  4.56687569124794
Source of the keplerian elements: AFSPC